| time (UTC) | temp F | wind direction | speed MPH | gust MPH | rain 1hr in | rain 24hr in | rain mn in | humidity % | barometer mb |
| 20260508023656 | 62 | 304 | 0.0 | 0.0 | 0.00 | 0.83 | 0.83 | 84 | 1019.9 |
| 20260508023154 | 62 | 304 | 0.0 | 0.0 | 0.00 | 0.83 | 0.83 | 84 | 1020.1 |
| 20260508022650 | 62 | 304 | 0.0 | 0.0 | 0.00 | 0.83 | 0.83 | 84 | 1019.9 |
| 20260508022147 | 62 | 304 | 0.0 | 0.0 | 0.00 | 0.83 | 0.83 | 84 | 1020.0 |
| 20260508021643 | 62 | 304 | 0.0 | 0.0 | 0.00 | 0.83 | 0.83 | 84 | 1019.8 |
| 20260508021138 | 62 | 305 | 0.0 | 0.0 | 0.00 | 0.83 | 0.83 | 84 | 1019.9 |
| 20260508020637 | 62 | 308 | 0.0 | 0.0 | 0.00 | 0.83 | 0.83 | 84 | 1019.9 |
| 20260508020134 | 62 | 308 | 0.0 | 0.0 | 0.00 | 0.83 | 0.83 | 84 | 1019.8 |
| 20260508015631 | 63 | 308 | 0.0 | 0.0 | 0.00 | 0.83 | 0.83 | 84 | 1019.6 |
| 20260508015128 | 63 | 306 | 0.0 | 0.0 | 0.00 | 0.83 | 0.83 | 84 | 1019.8 |
| 20260508014625 | 63 | 308 | 0.0 | 0.0 | 0.00 | 0.83 | 0.83 | 84 | 1019.6 |
| 20260508014121 | 63 | 308 | 0.0 | 0.0 | 0.00 | 0.83 | 0.83 | 83 | 1019.4 |
| 20260508013617 | 63 | 308 | 0.0 | 0.0 | 0.00 | 0.83 | 0.83 | 83 | 1019.7 |
| 20260508013114 | 63 | 308 | 0.0 | 0.0 | 0.00 | 0.83 | 0.83 | 83 | 1019.5 |
| 20260508012612 | 64 | 308 | 0.0 | 0.0 | 0.00 | 0.83 | 0.83 | 83 | 1019.4 |
| 20260508012109 | 64 | 308 | 0.0 | 0.0 | 0.00 | 0.83 | 0.83 | 83 | 1019.3 |
| 20260508011607 | 64 | 309 | 0.0 | 0.0 | 0.00 | 0.83 | 0.83 | 84 | 1019.4 |
| 20260508011104 | 64 | 308 | 0.0 | 0.0 | 0.00 | 0.83 | 0.83 | 83 | 1019.3 |
| 20260508010601 | 64 | 304 | 0.0 | 0.0 | 0.00 | 0.83 | 0.83 | 83 | 1019.5 |
| 20260508010059 | 64 | 304 | 0.0 | 0.0 | 0.00 | 0.83 | 0.83 | 82 | 1019.4 |
| 20260508005555 | 65 | 304 | 0.0 | 0.0 | 0.00 | 0.83 | 0.83 | 82 | 1019.1 |
| 20260508005051 | 65 | 304 | 0.0 | 0.0 | 0.00 | 0.83 | 0.83 | 81 | 1018.9 |
| 20260508004547 | 65 | 304 | 0.0 | 0.0 | 0.00 | 0.83 | 0.83 | 81 | 1018.9 |
| 20260508004044 | 66 | 304 | 0.0 | 0.0 | 0.00 | 0.83 | 0.83 | 80 | 1018.8 |
| 20260508003541 | 66 | 304 | 2.0 | 2.0 | 0.00 | 0.83 | 0.83 | 80 | 1018.7 |
| 20260508003038 | 66 | 306 | 0.0 | 2.0 | 0.00 | 0.83 | 0.83 | 79 | 1018.8 |
| 20260508002534 | 66 | 299 | 0.0 | 0.0 | 0.00 | 0.83 | 0.83 | 80 | 1018.6 |
| 20260508002032 | 66 | 216 | 0.0 | 0.0 | 0.00 | 0.83 | 0.83 | 80 | 1018.7 |
| 20260508001527 | 66 | 323 | 0.0 | 0.0 | 0.00 | 0.83 | 0.83 | 81 | 1018.6 |
| 20260508001024 | 67 | 304 | 0.0 | 0.0 | 0.00 | 0.83 | 0.83 | 81 | 1018.3 |
| 20260508000520 | 67 | 304 | 0.0 | 0.0 | 0.00 | 0.83 | 0.83 | 81 | 1018.3 |
| 20260508000018 | 67 | 304 | 0.0 | 0.0 | 0.00 | 0.83 | 0.83 | 81 | 1018.5 |
| 20260507235514 | 68 | 309 | 0.0 | 0.0 | 0.00 | 0.83 | 0.83 | 81 | 1018.1 |
| 20260507235011 | 68 | 306 | 0.0 | 0.0 | 0.00 | 0.83 | 0.83 | 81 | 1018.2 |
| 20260507234508 | 68 | 308 | 0.0 | 0.0 | 0.00 | 0.83 | 0.83 | 80 | 1017.9 |
| 20260507234004 | 68 | 303 | 0.0 | 0.0 | 0.00 | 0.83 | 0.83 | 81 | 1018.2 |
| 20260507233501 | 69 | 304 | 1.0 | 2.0 | 0.00 | 0.83 | 0.83 | 81 | 1018.2 |
| 20260507233000 | 69 | 304 | 0.0 | 0.0 | 0.00 | 0.83 | 0.83 | 81 | 1017.9 |
| 20260507232455 | 69 | 304 | 0.0 | 0.0 | 0.00 | 0.83 | 0.83 | 81 | 1017.9 |
| 20260507231953 | 69 | 304 | 0.0 | 0.0 | 0.00 | 0.83 | 0.83 | 80 | 1018.0 |
| 20260507231449 | 69 | 302 | 0.0 | 2.0 | 0.00 | 0.83 | 0.83 | 79 | 1017.8 |
| 20260507230946 | 69 | 304 | 1.0 | 2.0 | 0.00 | 0.83 | 0.83 | 79 | 1017.9 |
| 20260507230443 | 69 | 304 | 0.0 | 0.0 | 0.00 | 0.83 | 0.83 | 79 | 1017.7 |
| 20260507225938 | 69 | 305 | 0.0 | 2.0 | 0.00 | 0.83 | 0.83 | 81 | 1017.6 |
| 20260507225434 | 70 | 311 | 0.0 | 2.0 | 0.00 | 0.83 | 0.83 | 80 | 1017.8 |
| 20260507224931 | 70 | 283 | 2.0 | 3.0 | 0.00 | 0.83 | 0.83 | 77 | 1018.0 |
| 20260507224427 | 70 | 301 | 0.0 | 2.0 | 0.00 | 0.83 | 0.83 | 74 | 1017.8 |
| 20260507223924 | 71 | 300 | 0.0 | 0.0 | 0.00 | 0.83 | 0.83 | 78 | 1017.7 |
| 20260507223420 | 70 | 283 | 1.0 | 2.0 | 0.00 | 0.83 | 0.83 | 76 | 1017.6 |
| 20260507222917 | 71 | 299 | 0.0 | 0.0 | 0.00 | 0.83 | 0.83 | 77 | 1017.5 |
| 20260507222414 | 71 | 306 | 0.0 | 2.0 | 0.00 | 0.83 | 0.83 | 76 | 1017.8 |
| 20260507221911 | 71 | 293 | 0.0 | 0.0 | 0.00 | 0.83 | 0.83 | 78 | 1017.4 |
| 20260507221407 | 71 | 295 | 1.0 | 2.0 | 0.00 | 0.83 | 0.83 | 77 | 1017.3 |
| 20260507220903 | 71 | 292 | 0.0 | 2.0 | 0.00 | 0.83 | 0.83 | 76 | 1017.3 |
| 20260507220401 | 71 | 295 | 0.0 | 2.0 | 0.00 | 0.83 | 0.83 | 76 | 1017.4 |
| 20260507215857 | 71 | 300 | 2.0 | 3.0 | 0.00 | 0.83 | 0.83 | 72 | 1017.4 |
| 20260507215354 | 70 | 301 | 0.0 | 2.0 | 0.00 | 0.83 | 0.83 | 77 | 1017.3 |
| 20260507214851 | 70 | 237 | 1.0 | 3.0 | 0.00 | 0.83 | 0.83 | 78 | 1017.3 |
| 20260507214349 | 71 | 296 | 0.0 | 0.0 | 0.00 | 0.83 | 0.83 | 80 | 1017.5 |
| 20260507213844 | 71 | 275 | 0.0 | 0.0 | 0.00 | 0.83 | 0.83 | 77 | 1017.2 |
| 20260507213341 | 71 | 286 | 0.0 | 0.0 | 0.00 | 0.83 | 0.83 | 77 | 1017.3 |
| 20260507212838 | 71 | 271 | 1.0 | 2.0 | 0.00 | 0.83 | 0.83 | 76 | 1017.2 |
| 20260507212334 | 71 | 244 | 3.0 | 5.0 | 0.00 | 0.83 | 0.83 | 79 | 1017.4 |
| 20260507211830 | 71 | 302 | 0.0 | 2.0 | 0.00 | 0.83 | 0.83 | 79 | 1017.3 |
| 20260507211327 | 71 | 295 | 0.0 | 0.0 | 0.00 | 0.83 | 0.83 | 78 | 1017.5 |
| 20260507210824 | 72 | 297 | 0.0 | 0.0 | 0.00 | 0.83 | 0.83 | 76 | 1017.0 |
| 20260507210321 | 72 | 308 | 2.0 | 2.0 | 0.00 | 0.83 | 0.83 | 75 | 1017.2 |
| 20260507205818 | 72 | 246 | 5.0 | 12.0 | 0.00 | 0.83 | 0.83 | 74 | 1017.0 |
| 20260507205315 | 71 | 159 | 3.0 | 5.0 | 0.00 | 0.83 | 0.83 | 78 | 1017.3 |
| 20260507204810 | 71 | 272 | 1.0 | 2.0 | 0.00 | 0.83 | 0.83 | 77 | 1017.2 |
| 20260507204308 | 71 | 309 | 3.0 | 3.0 | 0.00 | 0.83 | 0.83 | 78 | 1017.2 |
| 20260507203806 | 71 | 300 | 1.0 | 2.0 | 0.00 | 0.83 | 0.83 | 79 | 1017.2 |
| 20260507203304 | 71 | 308 | 1.0 | 2.0 | 0.00 | 0.83 | 0.83 | 79 | 1017.4 |
| 20260507202800 | 70 | 291 | 0.0 | 0.0 | 0.00 | 0.83 | 0.83 | 79 | 1017.4 |
| 20260507202256 | 70 | 315 | 2.0 | 2.0 | 0.00 | 0.83 | 0.83 | 80 | 1017.3 |
| 20260507201750 | 71 | 312 | 0.0 | 0.0 | 0.00 | 0.83 | 0.83 | 80 | 1017.5 |
| 20260507201247 | 70 | 311 | 3.0 | 3.0 | 0.00 | 0.83 | 0.83 | 80 | 1017.5 |
| 20260507200744 | 70 | 293 | 0.0 | 0.0 | 0.00 | 0.83 | 0.83 | 81 | 1017.4 |
| 20260507200239 | 70 | 300 | 0.0 | 2.0 | 0.00 | 0.83 | 0.83 | 82 | 1017.5 |
| 20260507195736 | 70 | 314 | 2.0 | 3.0 | 0.00 | 0.83 | 0.83 | 83 | 1017.5 |
| 20260507195234 | 69 | 298 | 2.0 | 2.0 | 0.00 | 0.83 | 0.83 | 82 | 1017.5 |
| 20260507194731 | 69 | 300 | 1.0 | 2.0 | 0.00 | 0.83 | 0.83 | 82 | 1017.3 |
| 20260507194226 | 69 | 300 | 2.0 | 2.0 | 0.00 | 0.83 | 0.83 | 82 | 1017.6 |
| 20260507193723 | 69 | 279 | 0.0 | 0.0 | 0.00 | 0.83 | 0.83 | 82 | 1017.5 |
| 20260507193220 | 69 | 312 | 0.0 | 2.0 | 0.00 | 0.83 | 0.83 | 82 | 1017.5 |
| 20260507192716 | 69 | 294 | 0.0 | 0.0 | 0.00 | 0.83 | 0.83 | 83 | 1017.4 |
| 20260507192213 | 68 | 298 | 0.0 | 0.0 | 0.00 | 0.83 | 0.83 | 83 | 1017.5 |
| 20260507191709 | 69 | 293 | 0.0 | 0.0 | 0.00 | 0.83 | 0.83 | 84 | 1017.6 |
| 20260507191207 | 69 | 315 | 3.0 | 3.0 | 0.00 | 0.83 | 0.83 | 84 | 1017.4 |
| 20260507190703 | 69 | 304 | 1.0 | 2.0 | 0.00 | 0.83 | 0.83 | 84 | 1017.3 |
| 20260507190202 | 69 | 280 | 2.0 | 3.0 | 0.00 | 0.83 | 0.83 | 84 | 1017.5 |
| 20260507185700 | 69 | 97 | 2.0 | 2.0 | 0.00 | 0.83 | 0.83 | 85 | 1017.3 |
| 20260507185157 | 69 | 300 | 0.0 | 2.0 | 0.00 | 0.83 | 0.83 | 85 | 1017.1 |
| 20260507184654 | 69 | 299 | 0.0 | 0.0 | 0.00 | 0.83 | 0.83 | 86 | 1017.4 |
| 20260507184152 | 69 | 313 | 0.0 | 2.0 | 0.00 | 0.83 | 0.83 | 87 | 1017.2 |
| 20260507183648 | 69 | 303 | 1.0 | 2.0 | 0.00 | 0.83 | 0.83 | 86 | 1017.2 |
| 20260507183145 | 69 | 303 | 2.0 | 2.0 | 0.00 | 0.83 | 0.83 | 87 | 1017.5 |
| 20260507182643 | 69 | 301 | 0.0 | 2.0 | 0.00 | 0.83 | 0.83 | 88 | 1017.3 |
| 20260507182137 | 69 | 301 | 0.0 | 0.0 | 0.00 | 0.83 | 0.83 | 89 | 1017.5 |
| 20260507181634 | 69 | 300 | 0.0 | 2.0 | 0.00 | 0.83 | 0.83 | 89 | 1017.2 |
| 20260507181131 | 69 | 300 | 0.0 | 0.0 | 0.00 | 0.83 | 0.83 | 89 | 1017.2 |
| 20260507180627 | 69 | 292 | 1.0 | 2.0 | 0.00 | 0.83 | 0.83 | 89 | 1017.1 |
| 20260507180124 | 69 | 291 | 0.0 | 0.0 | 0.00 | 0.83 | 0.83 | 89 | 1017.4 |
| 20260507175620 | 69 | 291 | 0.0 | 0.0 | 0.00 | 0.83 | 0.83 | 89 | 1017.4 |
| 20260507175118 | 69 | 308 | 1.0 | 2.0 | 0.00 | 0.83 | 0.83 | 89 | 1017.5 |
| 20260507174615 | 69 | 267 | 0.0 | 2.0 | 0.00 | 0.83 | 0.83 | 89 | 1017.4 |
| 20260507174113 | 69 | 295 | 0.0 | 2.0 | 0.00 | 0.83 | 0.83 | 89 | 1017.3 |
| 20260507173610 | 70 | 298 | 0.0 | 0.0 | 0.00 | 0.83 | 0.83 | 89 | 1017.2 |
| 20260507173106 | 70 | 278 | 2.0 | 3.0 | 0.00 | 0.83 | 0.83 | 88 | 1017.3 |
| 20260507172602 | 70 | 208 | 4.0 | 5.0 | 0.00 | 0.83 | 0.83 | 87 | 1017.5 |
| 20260507172100 | 69 | 296 | 0.0 | 2.0 | 0.00 | 0.83 | 0.83 | 89 | 1017.5 |
| 20260507171554 | 68 | 206 | 5.0 | 7.0 | 0.00 | 0.83 | 0.83 | 89 | 1017.4 |
| 20260507171052 | 68 | 269 | 2.0 | 2.0 | 0.00 | 0.83 | 0.83 | 89 | 1017.4 |
| 20260507170549 | 68 | 286 | 0.0 | 0.0 | 0.00 | 0.83 | 0.83 | 89 | 1017.6 |
| 20260507170046 | 68 | 299 | 0.0 | 0.0 | 0.00 | 0.83 | 0.83 | 89 | 1017.6 |
| 20260507165541 | 68 | 297 | 1.0 | 2.0 | 0.00 | 0.83 | 0.83 | 89 | 1017.5 |
| 20260507165038 | 68 | 313 | 2.0 | 2.0 | 0.00 | 0.83 | 0.83 | 89 | 1017.5 |
| 20260507164534 | 68 | 299 | 1.0 | 2.0 | 0.00 | 0.83 | 0.83 | 89 | 1017.8 |
| 20260507164032 | 68 | 293 | 0.0 | 0.0 | 0.00 | 0.83 | 0.83 | 89 | 1017.6 |
| 20260507163529 | 68 | 293 | 0.0 | 0.0 | 0.00 | 0.83 | 0.83 | 89 | 1017.6 |
| 20260507163027 | 68 | 295 | 1.0 | 2.0 | 0.00 | 0.83 | 0.83 | 89 | 1017.5 |
| 20260507162527 | 68 | 294 | 2.0 | 2.0 | 0.00 | 0.83 | 0.83 | 89 | 1017.6 |
| 20260507162024 | 68 | 301 | 3.0 | 3.0 | 0.00 | 0.83 | 0.83 | 89 | 1017.6 |
| 20260507161520 | 68 | 301 | 2.0 | 2.0 | 0.00 | 0.83 | 0.83 | 89 | 1017.4 |
| 20260507161017 | 68 | 288 | 0.0 | 2.0 | 0.00 | 0.83 | 0.83 | 89 | 1017.7 |
| 20260507160513 | 67 | 293 | 0.0 | 2.0 | 0.00 | 0.83 | 0.83 | 89 | 1017.5 |
| 20260507160010 | 67 | 252 | 2.0 | 2.0 | 0.00 | 0.83 | 0.83 | 89 | 1017.6 |
| 20260507155505 | 67 | 296 | 0.0 | 2.0 | 0.00 | 0.83 | 0.83 | 89 | 1017.6 |
| 20260507155003 | 68 | 301 | 0.0 | 0.0 | 0.00 | 0.83 | 0.83 | 89 | 1017.3 |
| 20260507154459 | 67 | 302 | 0.0 | 0.0 | 0.00 | 0.83 | 0.83 | 89 | 1017.7 |
| 20260507153956 | 67 | 291 | 0.0 | 0.0 | 0.00 | 0.83 | 0.83 | 89 | 1017.6 |
| 20260507153453 | 66 | 225 | 3.0 | 5.0 | 0.00 | 0.83 | 0.83 | 89 | 1017.5 |
| 20260507152949 | 67 | 239 | 1.0 | 2.0 | 0.00 | 0.83 | 0.83 | 89 | 1017.5 |
| 20260507152445 | 66 | 292 | 0.0 | 0.0 | 0.00 | 0.83 | 0.83 | 89 | 1017.0 |
| 20260507151941 | 66 | 261 | 1.0 | 2.0 | 0.00 | 0.83 | 0.83 | 89 | 1017.2 |
| 20260507151438 | 66 | 288 | 0.0 | 0.0 | 0.00 | 0.83 | 0.83 | 89 | 1017.2 |
| 20260507150935 | 66 | 288 | 0.0 | 0.0 | 0.00 | 0.83 | 0.83 | 89 | 1017.2 |
| 20260507150432 | 65 | 288 | 0.0 | 0.0 | 0.05 | 0.83 | 0.83 | 89 | 1017.0 |
| 20260507145928 | 65 | 286 | 0.0 | 0.0 | 0.05 | 0.83 | 0.83 | 89 | 1017.1 |
| 20260507145424 | 65 | 287 | 0.0 | 0.0 | 0.00 | 0.82 | 0.82 | 89 | 1017.2 |
| 20260507144921 | 65 | 298 | 0.0 | 0.0 | 0.00 | 0.82 | 0.82 | 89 | 1017.0 |
| 20260507144418 | 66 | 294 | 0.0 | 0.0 | 0.00 | 0.82 | 0.82 | 89 | 1017.0 |
| 20260507143915 | 65 | 295 | 0.0 | 0.0 | 0.00 | 0.82 | 0.82 | 89 | 1017.2 |
| 20260507143412 | 65 | 295 | 0.0 | 0.0 | 0.00 | 0.82 | 0.82 | 89 | 1017.2 |
| 20260507142909 | 65 | 300 | 0.0 | 0.0 | 0.00 | 0.82 | 0.82 | 89 | 1017.0 |
| 20260507142404 | 65 | 295 | 0.0 | 0.0 | 0.00 | 0.82 | 0.82 | 89 | 1017.3 |
| 20260507141902 | 65 | 308 | 0.0 | 0.0 | 0.00 | 0.82 | 0.82 | 89 | 1017.3 |
| 20260507141358 | 66 | 300 | 0.0 | 0.0 | 0.00 | 0.82 | 0.82 | 89 | 1017.0 |
| 20260507140855 | 66 | 293 | 0.0 | 0.0 | 0.00 | 0.82 | 0.82 | 89 | 1016.9 |
| 20260507140351 | 66 | 298 | 0.0 | 0.0 | 0.07 | 0.82 | 0.82 | 89 | 1016.6 |
| 20260507135849 | 66 | 295 | 0.0 | 0.0 | 0.07 | 0.82 | 0.82 | 89 | 1016.8 |
| 20260507135346 | 65 | 305 | 0.0 | 0.0 | 0.07 | 0.82 | 0.82 | 89 | 1016.7 |
| 20260507134843 | 65 | 309 | 0.0 | 2.0 | 0.00 | 0.81 | 0.81 | 89 | 1016.8 |
| 20260507134339 | 65 | 307 | 0.0 | 0.0 | 0.00 | 0.81 | 0.81 | 89 | 1016.9 |
| 20260507133835 | 65 | 301 | 0.0 | 0.0 | 0.00 | 0.81 | 0.81 | 89 | 1017.1 |
| 20260507133331 | 65 | 299 | 0.0 | 0.0 | 0.00 | 0.81 | 0.81 | 89 | 1016.8 |
| 20260507132830 | 65 | 299 | 0.0 | 0.0 | 0.00 | 0.81 | 0.81 | 89 | 1016.7 |
| 20260507132326 | 65 | 304 | 0.0 | 0.0 | 0.00 | 0.81 | 0.81 | 89 | 1016.8 |
| 20260507131823 | 65 | 303 | 0.0 | 0.0 | 0.00 | 0.81 | 0.81 | 89 | 1016.6 |
| 20260507131320 | 66 | 302 | 0.0 | 0.0 | 0.00 | 0.81 | 0.81 | 89 | 1016.5 |
| 20260507130817 | 66 | 308 | 0.0 | 0.0 | 0.05 | 0.81 | 0.81 | 89 | 1016.6 |
| 20260507130314 | 66 | 318 | 0.0 | 0.0 | 0.12 | 0.81 | 0.81 | 89 | 1016.4 |
| 20260507125813 | 67 | 316 | 0.0 | 0.0 | 0.24 | 0.80 | 0.80 | 89 | 1016.3 |
| 20260507125310 | 68 | 333 | 3.0 | 3.0 | 0.28 | 0.79 | 0.79 | 89 | 1015.9 |
| 20260507124807 | 68 | 258 | 0.0 | 0.0 | 0.12 | 0.76 | 0.76 | 89 | 1015.9 |
| 20260507124303 | 68 | 304 | 0.0 | 0.0 | 0.07 | 0.74 | 0.74 | 89 | 1016.1 |
| 20260507123802 | 68 | 293 | 0.0 | 0.0 | 0.07 | 0.74 | 0.74 | 89 | 1015.7 |
| 20260507123259 | 68 | 259 | 0.0 | 0.0 | 0.00 | 0.73 | 0.73 | 89 | 1015.7 |
| 20260507122754 | 68 | 283 | 0.0 | 0.0 | 0.00 | 0.73 | 0.73 | 89 | 1015.8 |
| 20260507122250 | 68 | 283 | 0.0 | 0.0 | 0.00 | 0.73 | 0.73 | 89 | 1015.4 |
| 20260507121746 | 68 | 270 | 0.0 | 0.0 | 0.00 | 0.73 | 0.73 | 89 | 1015.4 |
| 20260507121242 | 68 | 269 | 1.0 | 2.0 | 0.00 | 0.73 | 0.73 | 89 | 1015.5 |
| 20260507120738 | 68 | 256 | 3.0 | 5.0 | 0.00 | 0.73 | 0.73 | 89 | 1015.3 |
| 20260507120235 | 68 | 262 | 2.0 | 3.0 | 0.05 | 0.73 | 0.73 | 89 | 1015.2 |
| 20260507115731 | 68 | 269 | 1.0 | 2.0 | 0.12 | 0.73 | 0.73 | 89 | 1015.0 |
| 20260507115228 | 68 | 262 | 3.0 | 3.0 | 0.26 | 0.72 | 0.72 | 89 | 1014.9 |
| 20260507114723 | 68 | 237 | 3.0 | 5.0 | 0.19 | 0.71 | 0.71 | 89 | 1015.1 |
| 20260507114221 | 68 | 244 | 4.0 | 5.0 | 0.05 | 0.68 | 0.68 | 89 | 1015.2 |
| 20260507113718 | 68 | 263 | 2.0 | 3.0 | 0.05 | 0.68 | 0.68 | 89 | 1015.1 |
| 20260507113215 | 68 | 275 | 0.0 | 0.0 | 0.00 | 0.67 | 0.67 | 89 | 1014.8 |
| 20260507112712 | 68 | 250 | 1.0 | 2.0 | 0.00 | 0.67 | 0.67 | 89 | 1015.0 |
| 20260507112209 | 68 | 232 | 2.0 | 3.0 | 0.00 | 0.67 | 0.67 | 89 | 1014.8 |
| 20260507111707 | 68 | 183 | 3.0 | 5.0 | 0.00 | 0.67 | 0.67 | 89 | 1014.5 |
| 20260507111204 | 68 | 251 | 0.0 | 2.0 | 0.00 | 0.67 | 0.67 | 89 | 1014.7 |
| 20260507110659 | 68 | 278 | 1.0 | 2.0 | 0.00 | 0.67 | 0.67 | 89 | 1014.5 |
| 20260507110156 | 68 | 269 | 0.0 | 0.0 | 0.07 | 0.67 | 0.67 | 89 | 1014.6 |
| 20260507105653 | 68 | 312 | 0.0 | 0.0 | 0.07 | 0.67 | 0.67 | 89 | 1014.5 |
| 20260507105149 | 68 | 204 | 2.0 | 3.0 | 0.00 | 0.66 | 0.66 | 89 | 1014.3 |
| 20260507104647 | 68 | 240 | 0.0 | 0.0 | 0.05 | 0.66 | 0.66 | 89 | 1014.4 |
| 20260507104143 | 68 | 271 | 0.0 | 0.0 | 0.12 | 0.66 | 0.66 | 89 | 1014.7 |
| 20260507103639 | 68 | 306 | 2.0 | 3.0 | 0.07 | 0.65 | 0.65 | 89 | 1015.0 |
| 20260507103136 | 68 | 180 | 1.0 | 3.0 | 0.17 | 0.64 | 0.64 | 89 | 1014.6 |
| 20260507102632 | 68 | 250 | 0.0 | 0.0 | 0.17 | 0.64 | 0.64 | 89 | 1014.7 |
| 20260507102128 | 68 | 203 | 4.0 | 7.0 | 0.00 | 0.61 | 0.61 | 89 | 1015.0 |
| 20260507101624 | 68 | 230 | 2.0 | 3.0 | 0.00 | 0.61 | 0.61 | 89 | 1015.0 |
| 20260507101120 | 68 | 259 | 0.0 | 2.0 | 0.00 | 0.61 | 0.61 | 89 | 1014.8 |
| 20260507100618 | 68 | 238 | 0.0 | 0.0 | 0.00 | 0.61 | 0.61 | 89 | 1014.9 |
| 20260507100116 | 68 | 264 | 0.0 | 0.0 | 0.00 | 0.61 | 0.61 | 89 | 1014.9 |
| 20260507095614 | 68 | 275 | 0.0 | 0.0 | 0.00 | 0.61 | 0.61 | 89 | 1015.0 |
| 20260507095110 | 68 | 236 | 0.0 | 0.0 | 0.00 | 0.61 | 0.61 | 89 | 1015.1 |
| 20260507094606 | 68 | 287 | 0.0 | 0.0 | 0.00 | 0.61 | 0.61 | 89 | 1015.1 |
| 20260507094103 | 68 | 248 | 0.0 | 0.0 | 0.00 | 0.61 | 0.61 | 89 | 1015.1 |
| 20260507093601 | 68 | 143 | 0.0 | 0.0 | 0.07 | 0.61 | 0.61 | 89 | 1014.9 |
| 20260507093059 | 67 | 166 | 3.0 | 5.0 | 0.14 | 0.61 | 0.61 | 89 | 1014.8 |
| 20260507092555 | 67 | 265 | 3.0 | 3.0 | 0.19 | 0.60 | 0.60 | 89 | 1014.5 |
| 20260507092052 | 67 | 288 | 0.0 | 0.0 | 0.17 | 0.59 | 0.59 | 89 | 1014.8 |
| 20260507091549 | 67 | 190 | 3.0 | 3.0 | 0.12 | 0.57 | 0.57 | 89 | 1014.8 |
| 20260507091045 | 67 | 263 | 0.0 | 0.0 | 0.12 | 0.56 | 0.56 | 89 | 1015.4 |
| 20260507090541 | 67 | 274 | 0.0 | 0.0 | 0.19 | 0.56 | 0.56 | 89 | 1016.0 |
| 20260507090038 | 67 | 266 | 1.0 | 3.0 | 0.28 | 0.55 | 0.55 | 89 | 1014.5 |
| 20260507085535 | 67 | 298 | 0.0 | 0.0 | 0.24 | 0.53 | 0.53 | 89 | 1014.2 |
| 20260507085032 | 67 | 174 | 3.0 | 3.0 | 0.07 | 0.50 | 0.50 | 89 | 1015.9 |
| 20260507084528 | 67 | 283 | 0.0 | 0.0 | 0.19 | 0.49 | 0.49 | 89 | 1016.1 |
| 20260507084026 | 67 | 281 | 0.0 | 0.0 | 0.19 | 0.49 | 0.49 | 89 | 1016.1 |
| 20260507083521 | 67 | 227 | 1.0 | 2.0 | 0.00 | 0.46 | 0.46 | 89 | 1016.0 |
| 20260507083019 | 67 | 249 | 0.0 | 0.0 | 0.00 | 0.46 | 0.46 | 89 | 1016.3 |
| 20260507082515 | 67 | 267 | 0.0 | 0.0 | 0.00 | 0.46 | 0.46 | 89 | 1016.2 |
| 20260507082011 | 67 | 269 | 0.0 | 0.0 | 0.00 | 0.46 | 0.46 | 89 | 1016.2 |
| 20260507081508 | 67 | 270 | 0.0 | 0.0 | 0.00 | 0.46 | 0.46 | 89 | 1016.1 |
| 20260507081005 | 67 | 238 | 0.0 | 0.0 | 0.00 | 0.46 | 0.46 | 89 | 1015.8 |
| 20260507080500 | 67 | 264 | 0.0 | 0.0 | 0.00 | 0.46 | 0.46 | 89 | 1015.9 |
| 20260507075956 | 67 | 279 | 0.0 | 0.0 | 0.05 | 0.46 | 0.46 | 89 | 1015.8 |
| 20260507075452 | 67 | 280 | 0.0 | 0.0 | 0.05 | 0.46 | 0.46 | 89 | 1016.1 |
| 20260507074949 | 67 | 279 | 0.0 | 0.0 | 0.00 | 0.45 | 0.45 | 89 | 1016.2 |
| 20260507074446 | 67 | 285 | 0.0 | 0.0 | 0.12 | 0.45 | 0.45 | 89 | 1016.2 |
| 20260507073944 | 67 | 275 | 0.0 | 0.0 | 0.31 | 0.45 | 0.45 | 89 | 1016.3 |
| 20260507073440 | 67 | 210 | 2.0 | 3.0 | 0.24 | 0.43 | 0.43 | 89 | 1016.3 |
| 20260507072937 | 67 | 272 | 1.0 | 2.0 | 0.19 | 0.41 | 0.41 | 89 | 1016.4 |
| 20260507072434 | 67 | 196 | 2.0 | 2.0 | 0.07 | 0.39 | 0.39 | 89 | 1016.4 |
| 20260507071932 | 67 | 212 | 2.0 | 3.0 | 0.00 | 0.38 | 0.38 | 89 | 1016.6 |
| 20260507071428 | 67 | 206 | 1.0 | 2.0 | 0.00 | 0.38 | 0.38 | 89 | 1016.4 |
| 20260507070925 | 67 | 244 | 3.0 | 5.0 | 0.00 | 0.38 | 0.38 | 89 | 1016.1 |
| 20260507070423 | 67 | 270 | 0.0 | 0.0 | 0.00 | 0.38 | 0.38 | 89 | 1016.2 |
| 20260507065919 | 67 | 125 | 0.0 | 0.0 | 0.00 | 0.38 | 0.38 | 89 | 1016.2 |
| 20260507065416 | 67 | 207 | 0.0 | 0.0 | 0.00 | 0.38 | 0.38 | 89 | 1016.0 |
| 20260507064913 | 67 | 269 | 0.0 | 0.0 | 0.05 | 0.38 | 0.38 | 89 | 1016.2 |
| 20260507064411 | 67 | 266 | 0.0 | 0.0 | 0.17 | 0.38 | 0.38 | 89 | 1015.4 |
| 20260507063909 | 67 | 164 | 0.0 | 2.0 | 0.38 | 0.37 | 0.37 | 89 | 1015.4 |
| 20260507063406 | 67 | 262 | 1.0 | 2.0 | 0.31 | 0.35 | 0.35 | 89 | 1015.9 |
| 20260507062903 | 67 | 183 | 2.0 | 2.0 | 0.05 | 0.31 | 0.31 | 89 | 1015.9 |
| 20260507062359 | 67 | 231 | 0.0 | 0.0 | 0.07 | 0.30 | 0.30 | 89 | 1016.1 |
| 20260507061857 | 67 | 256 | 1.0 | 2.0 | 0.12 | 0.30 | 0.30 | 89 | 1016.2 |
| 20260507061355 | 67 | 254 | 0.0 | 0.0 | 0.17 | 0.29 | 0.29 | 89 | 1016.2 |
| 20260507060853 | 68 | 299 | 3.0 | 5.0 | 0.12 | 0.28 | 0.28 | 89 | 1016.1 |
| 20260507060349 | 68 | 152 | 3.0 | 3.0 | 0.00 | 0.26 | 0.26 | 89 | 1017.1 |
| 20260507055846 | 68 | 193 | 2.0 | 3.0 | 0.07 | 0.26 | 0.26 | 89 | 1017.1 |
| 20260507055341 | 68 | 141 | 2.0 | 2.0 | 0.12 | 0.26 | 0.26 | 89 | 1017.4 |
| 20260507054839 | 68 | 154 | 0.0 | 2.0 | 0.12 | 0.25 | 0.25 | 89 | 1017.2 |
| 20260507054334 | 68 | 249 | 0.0 | 0.0 | 0.12 | 0.24 | 0.24 | 89 | 1017.2 |
| 20260507053832 | 68 | 277 | 0.0 | 2.0 | 0.19 | 0.24 | 0.24 | 89 | 1017.0 |
| 20260507053329 | 68 | 188 | 2.0 | 3.0 | 0.14 | 0.22 | 0.22 | 89 | 1016.7 |
| 20260507052828 | 68 | 209 | 2.0 | 3.0 | 0.12 | 0.21 | 0.21 | 89 | 1016.9 |
| 20260507052324 | 68 | 136 | 2.0 | 3.0 | 0.17 | 0.20 | 0.20 | 89 | 1016.7 |
| 20260507051822 | 68 | 110 | 3.0 | 3.0 | 0.31 | 0.19 | 0.19 | 89 | 1017.2 |
| 20260507051320 | 68 | 5 | 1.0 | 2.0 | 0.35 | 0.17 | 0.17 | 89 | 1017.7 |
| 20260507050816 | 68 | 291 | 0.0 | 2.0 | 0.38 | 0.15 | 0.15 | 89 | 1018.5 |
| 20260507050313 | 68 | 228 | 2.0 | 2.0 | 0.26 | 0.11 | 0.11 | 89 | 1019.5 |
| 20260507045810 | 68 | 231 | 3.0 | 5.0 | 0.17 | 0.09 | 0.09 | 89 | 1019.0 |
| 20260507045307 | 68 | 224 | 0.0 | 2.0 | 0.17 | 0.07 | 0.07 | 89 | 1018.6 |
| 20260507044803 | 68 | 243 | 0.0 | 2.0 | 0.19 | 0.06 | 0.06 | 89 | 1018.5 |
| 20260507044300 | 68 | 250 | 0.0 | 0.0 | 0.12 | 0.05 | 0.05 | 89 | 1017.9 |
| 20260507043756 | 68 | 251 | 0.0 | 0.0 | 0.12 | 0.04 | 0.04 | 89 | 1017.9 |
| 20260507043253 | 68 | 208 | 0.0 | 2.0 | 0.05 | 0.03 | 0.03 | 89 | 1017.9 |
| 20260507042749 | 68 | 269 | 0.0 | 0.0 | 0.07 | 0.02 | 0.02 | 89 | 1017.7 |
| 20260507042244 | 68 | 243 | 0.0 | 0.0 | 0.07 | 0.02 | 0.02 | 89 | 1017.8 |
| 20260507041742 | 68 | 192 | 0.0 | 0.0 | 0.00 | 0.01 | 0.01 | 89 | 1017.8 |
| 20260507041238 | 68 | 270 | 0.0 | 0.0 | 0.05 | 0.01 | 0.01 | 89 | 1018.2 |
| 20260507040735 | 68 | 270 | 0.0 | 2.0 | 0.05 | 0.01 | 0.01 | 89 | 1018.0 |
| 20260507040231 | 68 | 228 | 0.0 | 0.0 | 0.00 | 0.00 | 0.00 | 89 | 1018.3 |
| 20260507035727 | 68 | 255 | 0.0 | 2.0 | 0.00 | 0.40 | 0.40 | 89 | 1018.5 |
| 20260507035223 | 68 | 262 | 0.0 | 0.0 | 0.00 | 0.40 | 0.40 | 89 | 1018.5 |
| 20260507034721 | 68 | 255 | 0.0 | 0.0 | 0.00 | 0.40 | 0.40 | 89 | 1018.3 |
| 20260507034217 | 68 | 257 | 0.0 | 0.0 | 0.00 | 0.40 | 0.40 | 89 | 1017.6 |
| 20260507033716 | 69 | 268 | 0.0 | 0.0 | 0.00 | 0.40 | 0.40 | 89 | 1017.9 |
| 20260507033213 | 69 | 262 | 0.0 | 0.0 | 0.07 | 0.40 | 0.40 | 89 | 1018.0 |
| 20260507032710 | 69 | 234 | 0.0 | 0.0 | 0.07 | 0.40 | 0.40 | 89 | 1017.6 |
| 20260507032206 | 69 | 266 | 0.0 | 0.0 | 0.00 | 0.39 | 0.39 | 89 | 1017.8 |
| 20260507031703 | 69 | 271 | 0.0 | 0.0 | 0.00 | 0.39 | 0.39 | 89 | 1017.7 |
| 20260507031200 | 69 | 251 | 0.0 | 2.0 | 0.12 | 0.39 | 0.39 | 89 | 1017.7 |
| 20260507030656 | 69 | 263 | 0.0 | 0.0 | 0.90 | 0.39 | 0.39 | 89 | 1017.8 |
| 20260507030154 | 69 | 256 | 0.0 | 0.0 | 1.39 | 0.38 | 0.38 | 89 | 1017.9 |
| 20260507025651 | 69 | 266 | 0.0 | 0.0 | 0.78 | 0.28 | 0.28 | 89 | 1018.3 |
| 20260507025148 | 69 | 252 | 0.0 | 0.0 | 0.00 | 0.15 | 0.15 | 89 | 1019.5 |
| 20260507024646 | 70 | 192 | 1.0 | 3.0 | 0.05 | 0.15 | 0.15 | 89 | 1018.8 |
| 20260507024143 | 70 | 234 | 1.0 | 3.0 | 0.05 | 0.15 | 0.15 | 89 | 1019.0 |